Location: Mauries
(43.6188°N, 0.3322°W)
Time: 02:13:25
(UTC+00:00)

BlueWalker 3 - Visible Passes

Search period start: 13 March 2026 00:00
Search period end: 23 March 2026 00:00
Orbit: 451 x 458 km, 53.2° (Epoch: 12 March)

Date Brightness Start Highest point End Pass type
(mag) Time Alt. Az. Time Alt. Az. Time Alt. Az.
13 Mar 5.0 03:14:27 12° NE 03:14:27 12° NE 03:14:56 10° NE visible
13 Mar 3.2 04:48:08 15° NW 04:50:39 33° NNE 04:53:57 10° E visible
14 Mar 3.4 04:13:28 25° N 04:14:24 28° NNE 04:17:34 10° E visible
15 Mar 4.0 03:38:52 23° NE 03:38:52 23° NE 03:41:09 10° ENE visible
15 Mar 1.6 05:12:34 12° WNW 05:15:53 79° SW 05:19:27 10° SE visible
16 Mar 5.1 03:04:24 12° ENE 03:04:24 12° ENE 03:04:42 10° ENE visible
16 Mar 1.7 04:38:06 31° NW 04:39:41 80° NE 04:43:16 10° ESE visible
17 Mar 2.3 04:03:48 58° ENE 04:03:48 58° ENE 04:07:01 10° ESE visible
17 Mar 3.3 05:38:00 10° W 05:40:35 19° SW 05:43:09 10° S visible
18 Mar 4.3 03:29:40 18° E 03:29:40 18° E 03:30:42 10° ESE visible
18 Mar 2.9 05:03:24 21° WSW 05:04:28 25° SW 05:07:25 10° S visible
19 Mar 3.1 04:29:31 25° S 04:29:31 25° S 04:31:33 10° SSE visible
21 Mar 3.1 20:04:18 10° SSW 20:06:14 28° SSW 20:06:14 28° SSW visible
22 Mar 2.3 19:28:14 10° SSW 19:31:33 35° SE 19:32:36 29° E visible
22 Mar 4.6 21:05:35 10° W 21:06:21 15° W 21:06:21 15° W visible
